Location: Bo?a Wola
(50.4192°N, 19.7966°E)
Time: 03:24:33
(UTC+00:00)

GEOS 3 Rocket - Pass Details

Date: 22 September 2024
Orbit: 790 x 825 km, 115.0° (Epoch: 14 October)

Event Time Altitude Azimuth Distance (km) Brightness Sun altitude
Exits shadow 20:33:19 21° 259° (W) 1,741 5.5 -33.6°
Drops below altitude 10° 20:36:23 10° 294° (WNW) 2,389 6.7 -33.9°
Sets 20:39:11 0° 310° (NW) 3,319 7.8 -34.2°
